Location: Erbuch
(49.6398°N, 9.0452°E)
Time: 07:11:03
(UTC+00:00)

Daily predictions for brighter satellites

Satellite Brightness Start Highest point End
(mag) Time Altitude Azimuth Time Altitude Azimuth Time Altitude Azimuth
Ariane Rocket 3.9 19:53:57 10° SE 19:58:26 34° ENE 20:02:58 10° N
CZ-4C R/B 3.2 19:56:28 10° SSE 19:59:23 18° ESE 20:02:41 10° ENE
CZ-4B R/B 3.1 19:56:15 10° S 19:59:48 62° WSW 20:03:33 10° NNW
Okean 2 Rocket 3.6 19:56:40 10° N 20:00:51 42° ENE 20:05:00 10° SE
CZ-4B R/B 4.0 19:57:28 10° S 20:02:39 65° WSW 20:07:47 10° NNW
Cosmos 1869 3.3 19:59:52 10° N 20:03:23 53° ENE 20:06:52 10° SSE
Cosmos 1777 Rocket 4.1 20:02:04 10° S 20:07:10 58° ESE 20:12:16 10° NNE
Cosmos 2151 Rocket 3.8 20:03:14 10° N 20:07:43 60° ENE 20:12:09 10° SSE
BREEZE-M DEB (TANK) 3.6 20:06:36 10° S 20:08:20 16° SE 20:10:58 10° E
NOSS 3-3 (C) 4.3 20:04:21 10° SW 20:09:43 68° NW 20:16:13 10° NE
Cosmos 44 4.2 20:07:42 10° SSE 20:11:00 22° ESE 20:14:22 10° ENE
Lacrosse 5 rocket 3.2 20:10:10 10° WNW 20:13:35 29° N 20:17:03 10° NE
Cosmos 2242 Rocket 4.0 20:10:32 10° SSW 20:14:52 67° WNW 20:19:16 10° N
Okean 1 Rocket 3.5 20:10:49 10° N 20:15:02 45° ENE 20:19:12 10° SSE
Helios 1B rocket 2.9 20:13:44 10° S 20:17:19 51° WSW 20:20:56 10° NNW
Helios 1A 2.8 20:13:42 10° NNE 20:17:37 64° ESE 20:21:32 10° S
Meteor PRIRODA 4.1 20:16:03 10° S 20:18:44 40° W 20:21:26 10° NNW
Cosmos 2221 Rocket 4.1 20:16:36 10° SSE 20:20:52 44° E 20:25:12 10° NNE
TSX-5 4.0 20:19:18 10° NW 20:22:18 46° WSW 20:25:33 10° SSE
Gbstr 26 Del rocket 3.8 20:18:46 10° W 20:23:30 70° N 20:29:23 10° E
NOSS 3-4 (A) 4.0 20:18:28 10° NW 20:25:12 74° SW 20:33:06 10° SSE
NOSS 3-4 (C) 4.0 20:18:30 10° NW 20:25:15 75° SW 20:33:06 10° SSE
Terra 2.3 20:20:37 10° S 20:25:16 60° W 20:29:57 10° NNW
Cosmos 1455 Rocket 4.1 20:22:44 10° N 20:26:33 30° ENE 20:30:04 11° SE
SPOT 3 Rocket 3.7 20:23:45 10° SSE 20:28:53 65° ENE 20:34:03 10° N
Spot 2 Rocket 3.6 20:28:03 10° S 20:33:08 78° WSW 20:38:15 10° NNW
Sich 1 Rocket 3.7 20:28:35 10° N 20:33:11 77° E 20:37:43 10° SSE
IRS-1C Rocket 4.1 20:32:37 10° SSE 20:37:52 87° ENE 20:43:10 10° NNW
Cosmos 1818 3.7 20:32:33 10° NW 20:38:00 75° SW 20:42:53 13° SSE
ATLAS 5 CENTAUR R/B 4.4 20:37:24 10° NNW 20:38:48 12° N 20:40:15 10° NNE
Cosmos 1674 Rocket 3.6 20:34:43 10° S 20:39:08 88° W 20:43:36 10° N
Cosmos 1833 4.2 20:33:53 10° NNW 20:39:37 86° ENE 20:44:42 13° SSE
Cosmos 1538 Rocket 4.4 20:37:58 10° NNW 20:43:15 55° ENE 20:47:45 14° SE
ERS-1 Rocket 4.2 20:40:01 10° SSW 20:44:39 37° W 20:49:18 10° NNW
USA 245 3.8 20:41:18 10° S 20:45:26 55° WSW 20:48:46 10° NNW
IKONOS-2 4.4 20:42:19 10° NNE 20:46:29 77° ESE 20:50:35 10° S
Meteor 1-21 Rocket 4.4 20:43:31 10° SSW 20:49:09 74° WNW 20:54:45 10° N
Cosmos 2297 3.9 20:43:45 10° SSW 20:49:23 78° WNW 20:55:07 10° NNE
Cosmos 1812 2.2 20:48:22 10° N 20:51:32 65° E 20:53:43 18° SSE
PSLV R/B 3.4 20:49:19 17° SSE 20:51:32 59° ENE 20:54:38 10° N
Okean-O 4.1 20:47:57 10° SSW 20:51:53 32° W 20:55:51 10° NNW
Meteor 1-11 4.3 20:47:20 10° S 20:53:09 75° E 20:58:56 10° NNE
Meteor 2-1 Rocket 4.3 20:50:51 10° N 20:56:44 81° ENE 21:01:41 14° SSE
BlueWalker 3 2.6 20:55:07 10° WNW 20:58:43 51° N 21:02:18 10° E
Okean O Rocket 3.8 20:55:21 10° SW 20:58:45 22° W 21:02:12 10° NW
Cosmos 1025 Rocket 3.1 20:55:19 10° S 20:59:40 85° WNW 21:04:03 10° N
Cosmos 990 Rocket 3.9 20:54:34 10° SSW 20:59:43 76° ESE 21:04:57 10° NNE
Aureole 1 Rocket 4.4 21:03:25 10° S 21:09:42 53° ESE 21:16:54 10° NNE
RESURS DK-1 3.8 21:10:49 10° NNW 21:14:17 28° NE 21:17:10 13° ESE
Cosmos 372 Rocket 4.2 21:14:58 16° S 21:18:49 48° ESE 21:23:43 10° NNE
USA 215 4.0 21:14:49 10° E 21:21:08 53° NNE 21:27:26 10° WNW
DNEPR-1 R/B 3.5 21:17:35 10° NW 21:21:51 82° NE 21:24:32 22° SE
Cosmos 2369 Rocket 3.3 21:19:18 10° SW 21:24:48 48° NW 21:30:19 10° NNE
Cosmos 1400 Rocket 4.1 21:23:17 10° N 21:26:34 26° ENE 21:28:20 19° ESE
ASTEX 1 4.2 21:21:57 10° N 21:26:38 49° WNW 21:31:17 10° SSW
Meteor 1-27 4.3 21:24:10 10° N 21:29:57 73° ENE 21:33:45 22° SSE
Cosmos 2297 Rocket 3.1 21:29:53 10° NNW 21:35:13 41° NE 21:39:27 16° ESE
ISS -3.9 21:32:41 10° WNW 21:36:02 83° SSW 21:37:42 27° ESE
COBE Rocket 3.9 21:31:52 10° N 21:36:32 75° WNW 21:40:36 13° SSW
DELTA 2 R/B (1) 4.4 21:32:16 10° SW 21:36:54 28° S 21:38:43 23° SE
Cosmos 1937 Rocket 3.8 21:34:18 22° SSE 21:37:15 46° ESE 21:42:08 10° NNE
Ariane Rocket 4.1 21:32:58 12° SSW 21:37:16 38° W 21:42:00 10° NNW
Cosmos 1680 Rocket 3.9 21:34:03 10° NNW 21:39:14 54° ENE 21:42:31 22° SE
Cosmos 2098 Rocket 2.5 21:36:06 10° N 21:39:18 67° E 21:40:46 32° SSE
CZ-4C R/B 2.0 21:42:15 10° SW 21:46:39 75° NW 21:52:23 10° NE
ALOS 2 4.1 21:44:36 17° ESE 21:47:01 26° ENE 21:50:41 10° N
Cosmos 1627 Rocket 4.5 21:42:35 15° S 21:47:47 85° W 21:53:56 10° N
Cosmos 381 Rocket 4.5 21:41:47 10° NNW 21:48:08 84° WSW 21:52:07 24° SSE
Cosmos 1515 4.5 21:48:18 10° NNW 21:50:32 25° W 21:51:23 21° SW
Cosmos 923 Rocket 4.0 21:45:24 10° NNW 21:50:38 84° ENE 21:53:32 27° SSE
Cosmos 1697 Rocket 4.3 21:50:21 16° ESE 21:51:40 17° E 21:55:09 10° ENE
Cosmos 44 3.7 21:47:27 10° SW 21:51:42 57° NW 21:56:07 10° NE
Lacrosse 5 rocket 3.0 21:48:13 10° NW 21:51:45 31° NNE 21:55:19 10° ENE
Cosmos 1975 Rocket 3.2 21:53:28 20° SSW 21:56:22 70° WNW 22:00:40 10° N
MetOp-A 3.8 21:55:24 29° SE 21:56:54 46° ENE 22:00:33 10° N
Cosmos 2228 3.0 21:56:59 10° NNW 22:01:12 73° W 22:03:10 30° S
Cosmos 1455 Rocket 4.5 22:00:27 10° NNW 22:04:14 30° W 22:07:03 15° SW
Cosmos 2227 Rocket 3.4 22:02:42 10° NNW 22:07:56 36° NE 22:12:20 14° ESE
Cosmos 1867 3.5 22:03:46 10° SW 22:09:13 89° NW 22:14:44 10° NE
Meteor 2-20 4.5 22:04:04 10° NNW 22:10:14 79° W 22:13:55 26° S
Gbstr 26 Del rocket 3.6 22:05:01 10° WNW 22:10:16 78° SSW 22:15:20 17° ESE
BREEZE M DEB (TANK) 3.3 22:07:54 10° WSW 22:10:09 30° SW 22:10:09 30° SW
Cosmos 494 Rocket 4.3 22:06:43 10° NNW 22:11:54 59° ENE 22:14:39 27° SE
BREEZE-M DEB (TANK) 2.9 22:09:12 10° W 22:17:08 90° SSW 22:19:47 12° E
Cosmos 1898 Rocket 3.9 22:16:18 12° SW 22:21:01 62° WNW 22:26:15 10° NNE
CZ-2C R/B 3.7 22:16:48 10° NNE 22:21:33 75° ESE 22:23:40 33° S
Cosmos 2266 Rocket 4.3 22:19:21 28° SSE 22:22:42 56° E 22:28:57 10° NNE
ATLAS 5 CENTAUR R/B 4.5 22:21:12 10° NNW 22:23:15 14° NNE 22:25:28 10° NE
Spot 4 3.9 22:21:20 33° SSE 22:23:31 73° ENE 22:28:20 10° N
Landsat 5 3.6 22:25:29 10° NNE 22:29:10 47° E 22:29:50 42° SE
Cosmos 1553 Rocket 4.3 22:26:04 10° NNW 22:32:14 63° W 22:35:55 26° SSW
ARIANE 5 R/B 2.7 22:30:39 37° S 22:32:22 72° WSW 22:36:49 10° NNW
Cosmos 2315 Rocket 4.4 22:26:32 10° N 22:32:50 56° ENE 22:36:19 27° SE
BlueWalker 3 1.7 22:32:53 10° WNW 22:36:31 62° SSW 22:36:56 56° S
Cosmos 1315 Rocket 4.4 22:34:12 10° NNE 22:37:25 25° ENE 22:38:48 20° E
SL-08 ROCKET BODY 4.3 22:36:28 28° SSW 22:39:50 85° W 22:45:46 10° N
CZ-4C R/B 3.7 22:41:37 10° N 22:45:11 52° WNW 22:46:38 31° SW
Cosmos 1933 3.9 22:42:59 10° N 22:46:43 43° ENE 22:47:44 35° ESE
ATLAS 2AS CENTAUR R/B 3.5 22:42:45 10° NW 22:49:21 49° NE 22:55:50 10° ESE
Cosmos 1536 Rocket 3.6 22:48:20 36° SSW 22:50:02 72° W 22:54:28 10° N
Cosmos 1656 3.8 22:47:09 20° SW 22:51:03 75° WNW 22:56:37 10° NNE
Cosmos 1417 Rocket 4.5 22:45:27 10° NNW 22:51:35 75° W 22:54:39 31° S
RESURS DK-1 3.1 22:48:10 10° NW 22:51:50 36° WSW 22:52:29 34° SW
S3M 4.0 22:46:54 10° N 22:53:16 84° W 22:56:23 32° S
Cosmos 2263 Rocket 3.2 22:50:08 10° NNW 22:55:30 42° NE 22:59:46 15° ESE
Cosmos 1606 Rocket 3.5 22:53:06 10° NNW 22:57:29 83° W 22:58:50 44° S
Cosmos 1400 Rocket 4.1 22:58:50 10° NNW 23:02:06 27° W 23:03:02 24° WSW
Cosmos 2058 3.0 23:01:15 41° SW 23:02:26 63° WNW 23:06:21 10° N
USA 215 3.2 22:58:07 14° ESE 23:03:55 87° SSW 23:10:31 10° WNW
Cosmos 1602 3.1 23:07:46 71° ESE 23:07:49 71° E 23:11:01 10° NNE
Cosmos 1782 3.2 23:05:18 10° NNW 23:08:49 44° W 23:09:26 39° SW
ISS -1.4 23:09:48 10° W 23:10:32 14° W 23:10:32 14° W
Cosmos 1655 Rocket 4.1 23:09:38 32° S 23:12:46 75° E 23:19:09 10° NNE
Cosmos 1862 3.1 23:18:17 56° SW 23:18:55 75° W 23:22:36 10° N
Cosmos 2297 Rocket 2.9 23:14:01 10° NW 23:19:17 41° WSW 23:21:13 31° SSW
Cosmos 2219 3.9 23:15:06 10° NNW 23:20:39 51° NE 23:24:45 18° SE
Cosmos 1726 Rocket 3.8 23:16:07 10° NNW 23:20:43 67° W 23:22:11 42° SSW
Cosmos 2058 Rocket 3.2 23:18:04 10° N 23:22:32 68° E 23:23:59 41° SSE
Dummy Sat-02 4.4 23:22:12 64° S 23:22:43 87° E 23:26:21 10° N
PSLV R/B 3.8 23:18:04 10° N 23:22:45 77° WNW 23:24:32 38° SSW
ALOS 2 3.4 23:22:00 33° SW 23:23:11 39° W 23:27:20 10° NNW
Lacrosse 5 rocket 1.1 23:25:36 10° NW 23:29:33 84° NNE 23:31:05 36° ESE
Cosmos 1980 Rocket 2.7 23:28:23 33° SSE 23:30:14 43° ESE 23:35:31 10° NE
Cosmos 468 4.5 23:27:53 10° NNW 23:33:15 82° WSW 23:35:25 37° SSE
Cosmos 1356 Rocket 3.4 23:30:26 10° NNW 23:34:27 65° W 23:35:17 50° SSW
Cosmos 1697 Rocket 2.6 23:32:02 32° SSW 23:34:49 88° WNW 23:40:32 10° NNE
CZ-4C R/B 4.3 23:31:42 10° WNW 23:35:59 27° NNW 23:41:15 10° NE
Spot 1 4.4 23:35:32 10° N 23:40:18 68° WNW 23:42:05 36° SW
CZ-2C R/B 3.4 23:36:52 21° SE 23:40:23 49° ENE 23:45:47 10° N
Cosmos 1892 Rocket 3.6 23:39:40 42° SW 23:40:58 65° WNW 23:45:16 10° N
PSLV R/B 3.7 23:38:48 10° NNE 23:42:47 86° WNW 23:43:44 51° SSW
Cosmos 1441 Rocket 3.0 23:44:49 58° WSW 23:45:16 67° WNW 23:48:43 10° N
GEOS 3 Rocket 3.7 23:43:11 10° NE 23:48:28 80° NW 23:51:46 24° SW
Cosmos 1758 Rocket 4.3 23:47:54 32° SE 23:49:17 43° E 23:53:30 10° NNE
Meteor 2-3 Rocket 3.8 23:46:45 34° SSW 23:49:26 80° WNW 23:55:14 10° N
Cosmos 1626 Rocket 3.9 23:49:13 39° SSE 23:50:31 54° E 23:54:49 10° NNE
CENTAUR R/B 4.3 23:49:44 10° SE 23:51:58 13° E 23:54:31 10° ENE
Cosmos 2227 Rocket 2.6 23:46:42 10° NW 23:52:09 48° WSW 23:54:06 34° SSW
